Home   Weather   Santa Clara   Past weeks

Flag for USA Past Weather in Santa Clara, California, USA — Yesterday and Last 2 Weeks

82 °F

Passing clouds.

Feels Like: 80 °F
Forecast: 55 / 76 °F
Wind: 12 mph from Northwest

Location: San Jose International Airport

Current Time: Oct 20, 2016 at 5:35:29 PM

Latest Report: Oct 20, 2016 at 4:53 PM

Visibility: 10 mi

Pressure: 30.02 "Hg

Humidity: 25%

Dew Point: 43 °F

Location of Santa ClaraLocation

Past Weather in Santa Clara — Graph


Santa Clara Temperature Yesterday

Maximum temperature yesterday: 78 °F (at 3:53 PM)
Minimum temperature yesterday: 51 °F (at 5:53 AM)
Average temperature yesterday: 63 °F

High & Low Weather Summary for the Past Weeks

High88 °F (Oct 8, 2:53 PM)93% (Oct 16, 8:53 AM)30.20 "Hg (Oct 16, 8:53 AM)
Low51 °F (Oct 6, 6:53 AM)13% (Oct 8, 3:53 PM)29.76 "Hg (Oct 16, 2:53 PM)
Average64 °F62%30.00 "Hg
* Reported Oct 5 3:53 PM — Oct 20 3:53 PM, Santa Clara, Weather by CustomWeather, © 2016

Note: Actual official high and low records may vary slightly from our data, if they occured in-between our weather recording intervals... More about our weather records


Santa Clara Weather History for the Previous 24 Hours

Scroll right to see more
Time TempWeatherWind HumidityBarometerVisibility
3:53 PM
Thu, Oct 20
82 °FPassing clouds.10 mph26%30.03 "Hg10 mi
2:53 PM81 °FPassing clouds.8 mph28%30.05 "Hg10 mi
1:53 PM79 °FPassing clouds.6 mph31%30.08 "Hg10 mi
12:53 PM74 °FPassing clouds.6 mph41%30.10 "Hg10 mi
11:53 AM71 °FPassing clouds.6 mph45%30.13 "Hg10 mi
10:53 AM67 °FPassing clouds.3 mph49%30.14 "Hg10 mi
9:53 AM64 °FPassing clouds.No wind52%30.15 "Hg10 mi
8:53 AM59 °FPassing clouds.No wind60%30.14 "Hg10 mi
7:53 AM54 °FPassing clouds.3 mph72%30.13 "Hg10 mi
6:53 AM53 °FClear.3 mph69%30.13 "Hg10 mi
5:53 AM52 °FClear.3 mph75%30.13 "Hg10 mi
4:53 AM53 °FClear.3 mph72%30.12 "Hg10 mi
3:53 AM54 °FClear.No wind69%30.13 "Hg10 mi
2:53 AM55 °FClear.No wind69%30.14 "Hg10 mi
1:53 AM56 °FClear.No wind67%30.14 "Hg10 mi
12:53 AM56 °FClear.5 mph67%30.14 "Hg10 mi
11:53 PM
Wed, Oct 19
59 °FClear.3 mph67%30.14 "Hg10 mi
10:53 PM61 °FPassing clouds.No wind60%30.13 "Hg10 mi
9:53 PM63 °FPassing clouds.5 mph60%30.13 "Hg10 mi
8:53 PM63 °FPassing clouds.3 mph58%30.13 "Hg10 mi
7:53 PM66 °FPassing clouds.8 mph52%30.12 "Hg10 mi
6:53 PM68 °FPartly cloudy.10 mph47%30.10 "Hg10 mi
5:53 PM72 °FBroken clouds.10 mph38%30.10 "Hg10 mi
Weather by CustomWeather, © 2016

See weather overviewHow to use our weather pages